Location: ??????????
(31.2156°N, 29.9553°E)
Time: 08:24:49
(UTC+00:00)

Meteor 1-13 Rocket - Pass Details

Date: 03 March 2021
Orbit: 830 x 913 km, 81.3° (Epoch: 15 April)

Event Time Altitude Azimuth Distance (km) Brightness Sun altitude
Rises 17:57:39 0° 353° (N) 3,542 7.6 -25.9°
Reaches altitude 10° 18:00:08 10° 355° (N) 2,591 6.9 -26.4°
Enters shadow 18:06:04 82° 81° (E) 908 4.1 -27.7°
